DW8507 Weather Reports


Display with metric or nautical units.
time (UTC)temp
F
wind
direction
speed
MPH
gust
MPH
rain 1hr
in
rain 24hr
in
rain mn
in
humidity
%
barometer
mb
20260508003457 50 0 0.0 0.0 0.00 0.00 0.00 76 1010.6
20260508002809 50 0 0.0 0.0 0.00 0.00 0.00 76 1010.7
20260508001657 50 0 0.0 0.0 0.00 0.00 0.00 76 1010.7
20260508000757 50 0 0.0 0.0 0.00 0.00 0.00 76 1010.8
20260508000112 50 0 0.0 0.0 0.00 0.00 0.00 76 1010.6
20260507234959 50 0 0.0 0.0 0.00 0.00 0.00 76 1010.9
20260507234057 50 0 0.0 0.0 0.00 0.00 0.00 75 1010.8
20260507233157 51 0 0.0 0.0 0.00 0.00 0.00 75 1011.1
20260507232257 51 0 0.0 0.0 0.00 0.00 0.00 74 1010.9
20260507231357 51 0 0.0 0.0 0.00 0.00 0.00 74 1010.9
20260507230457 52 0 0.0 0.0 0.00 0.00 0.00 73 1011.1
20260507225559 52 0 0.0 0.0 0.00 0.00 0.00 73 1011.1
20260507224657 53 0 0.0 0.0 0.00 0.00 0.00 73 1011.2
20260507223757 53 0 0.0 0.0 0.00 0.00 0.00 73 1010.8
20260507222858 53 0 0.0 0.0 0.00 0.00 0.00 73 1011.0
20260507221958 53 0 0.0 0.0 0.00 0.00 0.00 73 1011.0
20260507221057 53 0 0.0 0.0 0.00 0.00 0.00 73 1010.9
20260507220412 53 0 0.0 0.0 0.00 0.00 0.00 73 1010.9
20260507215257 53 0 0.0 0.0 0.00 0.00 0.00 73 1011.1
20260507214357 53 0 0.0 0.0 0.00 0.00 0.00 73 1011.0
20260507213457 54 0 0.0 0.0 0.00 0.00 0.00 72 1011.0
20260507212559 54 0 0.0 0.0 0.00 0.00 0.00 72 1010.9
20260507211657 54 0 0.0 0.0 0.00 0.00 0.00 72 1011.0
20260507210757 54 0 0.0 0.0 0.00 0.00 0.00 71 1010.8
20260507210108 54 0 0.0 0.0 0.00 0.00 0.00 69 1010.6
20260507204957 55 0 0.0 0.0 0.00 0.00 0.00 68 1010.9
20260507204057 55 0 0.0 0.0 0.00 0.00 0.00 67 1010.7
20260507203157 55 0 0.0 0.0 0.00 0.00 0.00 66 1010.8
20260507202257 55 0 0.0 0.0 0.00 0.00 0.00 65 1010.5
20260507201610 56 0 0.0 0.0 0.00 0.00 0.00 65 1010.2
20260507200457 56 0 0.0 0.0 0.00 0.00 0.00 64 1010.3
20260507195557 56 0 0.0 0.0 0.00 0.00 0.00 64 1009.9
20260507194907 57 0 0.0 0.0 0.00 0.00 0.00 63 1009.9
20260507193757 57 0 0.0 0.0 0.00 0.00 0.00 63 1009.5
20260507193107 57 0 0.0 0.0 0.00 0.00 0.00 62 1009.9
20260507192209 58 0 0.0 0.0 0.00 0.00 0.00 62 1009.5
20260507191057 58 0 0.0 0.0 0.00 0.00 0.00 61 1009.5
20260507190157 58 0 0.0 0.0 0.00 0.00 0.00 61 1009.6
20260507185257 59 0 0.0 0.0 0.00 0.00 0.00 61 1009.6
20260507184400 59 0 0.0 0.0 0.00 0.00 0.00 61 1009.7
20260507183457 59 0 0.0 0.0 0.00 0.00 0.00 60 1009.5
20260507182557 59 0 0.0 0.0 0.00 0.00 0.00 60 1009.4
20260507181657 59 0 0.0 0.0 0.00 0.00 0.00 59 1009.3
20260507181008 59 0 0.0 0.0 0.00 0.00 0.00 58 1009.3
20260507175857 59 0 0.0 0.0 0.00 0.00 0.00 56 1009.2
20260507175208 60 0 0.0 0.0 0.00 0.00 0.00 55 1009.2
20260507174310 60 0 0.0 0.0 0.00 0.00 0.00 53 1009.0
20260507173157 60 0 0.0 0.0 0.00 0.00 0.00 52 1009.1
20260507172257 61 0 0.0 0.0 0.00 0.00 0.00 50 1008.9
20260507171357 61 0 0.0 0.0 0.00 0.00 0.00 50 1009.0
20260507170457 62 0 0.0 0.0 0.00 0.00 0.00 48 1009.1
20260507165557 62 0 0.0 0.0 0.00 0.00 0.00 48 1008.9
20260507164657 62 0 0.0 0.0 0.00 0.00 0.00 50 1009.0
20260507164006 62 0 0.0 0.0 0.00 0.00 0.00 47 1009.1
20260507162858 63 0 0.0 0.0 0.00 0.00 0.00 45 1009.0
20260507161959 63 0 0.0 0.0 0.00 0.00 0.00 43 1009.1
20260507161308 64 0 0.0 0.0 0.00 0.00 0.00 40 1009.1
20260507160157 64 0 0.0 0.0 0.00 0.00 0.00 40 1009.2
20260507155257 64 0 0.0 0.0 0.00 0.00 0.00 40 1009.2
20260507154357 64 0 0.0 0.0 0.00 0.00 0.00 41 1009.1
20260507153457 63 0 0.0 0.0 0.00 0.00 0.00 42 1009.1
20260507152810 63 0 0.0 0.0 0.00 0.00 0.00 42 1009.4
20260507151658 64 0 0.0 0.0 0.00 0.00 0.00 41 1009.2
20260507151010 64 0 0.0 0.0 0.00 0.00 0.00 40 1009.2
20260507145857 63 0 0.0 0.0 0.00 0.00 0.00 41 1009.4
20260507144958 63 0 0.0 0.0 0.00 0.00 0.00 41 1009.4
20260507144057 63 0 0.0 0.0 0.00 0.00 0.00 41 1009.3
20260507143157 63 0 0.0 0.0 0.00 0.00 0.00 41 1009.5
20260507142259 63 0 0.0 0.0 0.00 0.00 0.00 40 1009.6
20260507141358 64 0 0.0 0.0 0.00 0.00 0.00 38 1009.6
20260507140457 63 0 0.0 0.0 0.00 0.00 0.00 43 1009.7
20260507135557 63 0 0.0 0.0 0.00 0.00 0.00 42 1009.7
20260507134657 63 0 0.0 0.0 0.00 0.00 0.00 43 1009.7
20260507133757 62 0 0.0 0.0 0.00 0.00 0.00 43 1009.5
20260507132857 62 0 0.0 0.0 0.00 0.00 0.00 44 1009.8
20260507131957 62 0 0.0 0.0 0.00 0.00 0.00 43 1009.8
20260507131102 62 0 0.0 0.0 0.00 0.00 0.00 43 1009.7
20260507130157 62 0 0.0 0.0 0.00 0.00 0.00 41 1010.0
20260507125510 63 0 0.0 0.0 0.00 0.00 0.00 41 1009.9
20260507124357 63 0 0.0 0.0 0.00 0.00 0.00 43 1010.2
20260507123457 62 0 0.0 0.0 0.00 0.00 0.00 44 1010.0
20260507122812 61 0 0.0 0.0 0.00 0.00 0.00 44 1010.1
20260507121659 61 0 0.0 0.0 0.00 0.00 0.00 48 1010.0
20260507120757 61 0 0.0 0.0 0.00 0.00 0.00 45 1010.3
20260507115857 61 0 0.0 0.0 0.00 0.00 0.00 46 1010.3
20260507115206 62 0 0.0 0.0 0.00 0.00 0.00 45 1010.3
20260507114058 63 0 0.0 0.0 0.00 0.00 0.00 47 1010.3
20260507113157 64 0 0.0 0.0 0.00 0.00 0.00 44 1010.5
20260507112257 63 0 0.0 0.0 0.00 0.00 0.00 47 1010.5
20260507111611 64 0 0.0 0.0 0.00 0.00 0.00 42 1010.6
20260507110457 64 0 0.0 0.0 0.00 0.00 0.00 48 1010.7
20260507105557 64 0 0.0 0.0 0.00 0.00 0.00 50 1010.6
20260507104657 63 0 0.0 0.0 0.00 0.00 0.00 54 1010.7
20260507104010 62 0 0.0 0.0 0.00 0.00 0.00 56 1010.9
20260507102857 61 0 0.0 0.0 0.00 0.00 0.00 55 1010.8
20260507101958 61 0 0.0 0.0 0.00 0.00 0.00 55 1010.7
20260507101307 61 0 0.0 0.0 0.00 0.00 0.00 56 1011.1
20260507100157 61 0 0.0 0.0 0.00 0.00 0.00 61 1011.2
20260507095258 60 0 0.0 0.0 0.00 0.00 0.00 62 1011.2
20260507094357 60 0 0.0 0.0 0.00 0.00 0.00 65 1011.1
20260507093457 59 0 0.0 0.0 0.00 0.00 0.00 72 1011.3
20260507092557 58 0 0.0 0.0 0.00 0.00 0.00 74 1011.1
20260507091657 57 0 0.0 0.0 0.00 0.00 0.00 79 1011.2
20260507090757 56 0 0.0 0.0 0.00 0.00 0.00 82 1011.5
20260507085857 54 0 0.0 0.0 0.00 0.00 0.00 88 1011.3
20260507084957 53 0 0.0 0.0 0.00 0.00 0.00 92 1011.5
20260507084057 52 0 0.0 0.0 0.00 0.00 0.00 94 1011.3
20260507083408 51 0 0.0 0.0 0.00 0.00 0.00 94 1011.6
20260507082257 49 0 0.0 0.0 0.00 0.00 0.00 94 1011.5
20260507081357 49 0 0.0 0.0 0.00 0.00 0.00 94 1011.5
20260507080710 49 0 0.0 0.0 0.00 0.00 0.00 94 1011.5
20260507075812 48 0 0.0 0.0 0.00 0.00 0.00 95 1011.6
20260507074657 47 0 0.0 0.0 0.00 0.00 0.00 94 1011.5
20260507073758 47 0 0.0 0.0 0.00 0.00 0.00 94 1011.7
20260507072857 46 0 0.0 0.0 0.00 0.00 0.00 94 1011.5
20260507071959 46 0 0.0 0.0 0.00 0.00 0.00 93 1011.4
20260507071058 45 0 0.0 0.0 0.00 0.00 0.00 100 1011.4
20260507070202 45 0 0.0 0.0 0.00 0.00 0.00 97 1011.4
20260507065257 45 0 0.0 0.0 0.00 0.00 0.00 97 1011.4
20260507064358 44 0 0.0 0.0 0.00 0.00 0.00 97 1011.4
20260507063509 44 0 0.0 0.0 0.00 0.00 0.00 97 1011.5
20260507062557 44 0 0.0 0.0 0.00 0.00 0.00 96 1011.2
20260507061658 43 0 0.0 0.0 0.00 0.00 0.00 96 1011.3
20260507060757 43 0 0.0 0.0 0.00 0.00 0.00 96 1011.4
20260507055857 43 0 0.0 0.0 0.00 0.00 0.00 96 1011.4
20260507054958 43 0 0.0 0.0 0.00 0.00 0.00 96 1011.2
20260507054057 43 0 0.0 0.0 0.00 0.00 0.00 95 1011.1
20260507053410 43 0 0.0 0.0 0.00 0.00 0.00 95 1011.2
20260507052257 43 0 0.0 0.0 0.00 0.00 0.00 95 1011.1
20260507051357 43 0 0.0 0.0 0.00 0.00 0.00 95 1011.0
20260507050457 43 0 0.0 0.0 0.00 0.00 0.00 95 1011.2
20260507045557 43 0 0.0 0.0 0.00 0.00 0.00 95 1011.0
20260507044657 43 0 0.0 0.0 0.00 0.00 0.00 95 1010.8
20260507044009 43 0 0.0 0.0 0.00 0.00 0.00 94 1010.8
20260507042857 43 0 0.0 0.0 0.00 0.00 0.00 94 1010.7
20260507042208 43 0 0.0 0.0 0.00 0.00 0.00 94 1010.8
20260507041057 43 0 0.0 0.0 0.00 0.00 0.00 94 1010.8
20260507040157 43 0 0.0 0.0 0.00 0.00 0.00 93 1011.0
20260507035511 43 0 0.0 0.0 0.00 0.00 0.00 93 1010.6
20260507034357 42 0 0.0 0.0 0.00 0.00 0.00 93 1010.7
20260507033457 42 0 0.0 0.0 0.00 0.00 0.00 92 1010.6
20260507032557 42 0 0.0 0.0 0.00 0.00 0.00 92 1010.8
20260507031658 42 0 0.0 0.0 0.00 0.00 0.00 92 1010.6
20260507031007 41 0 0.0 0.0 0.00 0.00 0.00 91 1010.6
20260507030110 41 0 0.0 0.0 0.00 0.00 0.00 91 1010.7
20260507024957 40 0 0.0 0.0 0.00 0.00 0.00 90 1010.8
20260507024057 40 0 0.0 0.0 0.00 0.00 0.00 90 1010.7
20260507023407 40 0 0.0 0.0 0.00 0.00 0.00 89 1010.7
20260507022257 40 0 0.0 0.0 0.00 0.00 0.00 89 1010.5
20260507021357 40 0 0.0 0.0 0.00 0.00 0.00 88 1010.8
20260507020457 40 0 0.0 0.0 0.00 0.00 0.00 88 1010.7
20260507015557 40 0 0.0 0.0 0.00 0.00 0.00 89 1010.6
20260507014657 41 0 0.0 0.0 0.00 0.00 0.00 89 1010.6
20260507013757 41 0 0.0 0.0 0.00 0.00 0.00 89 1010.3
20260507012857 41 0 0.0 0.0 0.00 0.00 0.00 89 1010.4
20260507011957 42 0 0.0 0.0 0.00 0.00 0.00 89 1010.3
20260507011308 42 0 0.0 0.0 0.00 0.00 0.00 89 1010.3
20260507010157 42 0 0.0 0.0 0.00 0.00 0.00 89 1010.3
20260507005507 42 0 0.0 0.0 0.00 0.00 0.00 89 1010.5
20260507004358 42 0 0.0 0.0 0.00 0.00 0.00 88 1010.6